Regional Weather Roundup
Issued by NWS

Home | Current Version | Previous Version | Graphics & Text | Print | Product List | Glossary On
Versions: 1 2 3 4 5 6 7 8 9 10 11 12 13 14 15 16 17 18 19 20 21 22 23 24 25 26 27 28 29 30 31 32 33 34 35 36 37 38 39 40 41 42 43 44 45 46 47 48 49 50
000
ASUS43 KMPX 221710
RWRMN
WEATHER ROUNDUP FOR MINNESOTA
NATIONAL WEATHER SERVICE TWIN CITIES/CHANHASSEN MN
1200 PM CDT FRI AUG 22 2014


NOTE: "FAIR" INDICATES FEW OR NO CLOUDS BELOW 12,000 FEET WITH NO
SIGNIFICANT WEATHER AND/OR OBSTRUCTIONS TO VISIBILITY. N/A MEANS
CURRENT SKY AND/OR WEATHER CONDITIONS ARE NOT AVAILABLE.

MNZ060>063-068>070-221800-
   Twin Cities Metro

CITY           SKY/WX    TMP DP  RH WIND       PRES   REMARKS
TWIN CITIES    CLOUDY    74  68  81 NW6       29.97R
ST PAUL        CLOUDY    74  67  78 CALM      29.97R
CRYSTAL        CLOUDY    74  67  78 NW7       29.96R
LAKEVILLE      CLOUDY    73  68  83 CALM      29.97R
EDEN PRAIRIE   CLOUDY    74  68  81 NW6       29.96S
SOUTH ST PAUL  CLOUDY    73  67  81 CALM      29.96S
LAKE ELMO      CLOUDY    72  68  88 CALM      29.98R
$$
MNZ001>005-007-008-013>017-022>024-027-028-221800-
   Northwest Minnesota

CITY           SKY/WX    TMP DP  RH WIND       PRES   REMARKS
BEMIDJI        CLOUDY    73  65  77 SE3       30.00R
HALLOCK        CLOUDY    68  64  88 N9        30.00R
ROSEAU         CLOUDY    70  64  83 NE10      29.99S
WARROAD        CLOUDY    70  64  83 NE5       30.01R
THIEF RVR FALL CLOUDY    70  68  94 NW5       29.99R
CROOKSTON      CLOUDY    70  66  88 N8        29.99S FOG
FOSSTON        MOSUNNY   73  70  88 CALM      29.99S
DETROIT LAKES  PTSUNNY   75  68  78 NW6       30.00S
MOORHEAD       CLOUDY    70  70 100 N6        29.98F
PARK RAPIDS    CLOUDY    74  66  76 CALM      30.00S
MAHNOMEN       PTSUNNY   73  69  87 W5        29.98F
$$
MNZ006-009>011-018-025>026-221800-
   North Central Minnesota

CITY           SKY/WX    TMP DP  RH WIND       PRES   REMARKS
BAUDETTE       CLOUDY    70  65  84 E6        30.00R
FLAG ISLAND    CLOUDY    70  64  83 CALM      30.00R
INTL FALLS     CLOUDY    71  64  78 VRB3      30.01R
WASKISH        CLOUDY    72  66  83 CALM      30.00S
BIG FORK       MOSUNNY   72  64  78 NE3       30.01R
LONGVILLE      PTSUNNY   75  66  73 CALM      29.99S
GRAND RAPIDS   CLOUDY    70  64  83 CALM      30.00S
CRANE LAKE     CLOUDY    66  63  88 CALM      30.03R
ORR            CLOUDY    72  61  68 CALM      29.98F
COOK           CLOUDY    68  64  88 N5        30.01S
WALKER         CLOUDY    73  65  77 S3        30.00S
$$
MNZ012-019>021-037-221800-
   Northeast Minnesota

CITY           SKY/WX    TMP DP  RH WIND       PRES   REMARKS
DULUTH         FOG       64  62  93 CALM      30.00R VSB 3/4
ELY            CLOUDY    66  63  88 CALM      30.01R
HIBBING        CLOUDY    72  64  76 SE5       30.00R
EVELETH        CLOUDY    66  63  88 CALM      30.01S
DULUTH HARBOR  CLOUDY    63  61  94 NE13      30.00R FOG
TWO HARBORS    CLOUDY    64  61  88 E6        29.98S
SILVER BAY     CLOUDY    63  63 100 N7        29.99S FOG
GRAND MARAIS     N/A     62  59  90 E7        29.99R
G MARAIS ARPRT CLOUDY    63  59  88 NE7       30.03S FOG
$$
MNZ029>031-032-039>041-046>048-054>057-064-221800-
   West Central Minnesota

CITY           SKY/WX    TMP DP  RH WIND       PRES   REMARKS
FERGUS FALLS   MOSUNNY   77  68  73 CALM      29.97S
WHEATON        MOSUNNY   70  70 100 E3        29.99S
MORRIS         SUNNY     81  70  69 CALM      29.98R
ALEXANDRIA     MOSUNNY   78  67  68 VRB5      30.01R
ELBOW LAKE     FAIR      76  69  77 NW5       29.99R
WADENA         PTSUNNY   73  68  83 NE6       29.99S
GLENWOOD       MOSUNNY   77  68  73 N5        30.01R
APPLETON       PTSUNNY   79  68  69 N3        29.98R
BENSON         PTSUNNY   81  70  69 N5        29.99R
ORTONVILLE     PTSUNNY   75  68  78 NE3       29.99S
MADISON        SUNNY     77  72  83 CALM      30.00R
WILLMAR        PTSUNNY   79  68  69 NE3       30.00R
$$
MNZ033>034-036-042>043-049>051-058-059-221800-
   Central Minnesota

CITY           SKY/WX    TMP DP  RH WIND       PRES   REMARKS
ST CLOUD       CLOUDY    75  68  78 N6        29.98S
SAUK CENTRE    CLOUDY    75  67  77 NE7       30.00R
PAYNESVILLE    PTSUNNY   74  66  74 N7        29.99R
AITKIN         CLOUDY    70  63  78 CALM      29.99R HAZE
PINE RIVER     CLOUDY    72  64  78 CALM      30.03R
BRAINERD       CLOUDY    68  65  90 NE6       30.00R
STAPLES        CLOUDY    72  66  83 N3        30.00R
LONG PRAIRIE   CLOUDY    70  66  88 NE5       30.01R
LITTLE FALLS   CLOUDY    68  63  83 CALM      29.99S
LITCHFIELD     CLOUDY    79  72  78 N5        29.99R
BUFFALO        CLOUDY    74  67  78 N3        29.99R
MAPLE LAKE     CLOUDY    75  69  82 NW6       29.99R
$$
MNZ037-044-045-052-053-221800-
   East Central Minnesota

CITY           SKY/WX    TMP DP  RH WIND       PRES   REMARKS
PRINCETON      CLOUDY    73  66  78 N5        29.98S
MORA           CLOUDY    64  63  94 N3        29.99S
CAMBRIDGE      PTSUNNY   73  63  68 N5        29.96S
RUSH CITY      CLOUDY    68  65  89 N5        29.98S
MOOSE LAKE     CLOUDY    64  61  88 NE3       29.99R
HINCKLEY       CLOUDY    66  64  94 N6        29.99R
CLOQUET        CLOUDY    63  63 100 CALM      30.00S FOG
MCGREGOR       CLOUDY    64  63  94 CALM      30.01R
$$
MNZ071>073-080-081-089-090-097-098-221800-
   Southwest Minnesota

CITY           SKY/WX    TMP DP  RH WIND       PRES   REMARKS
MONTEVIDEO     CLOUDY    82  75  78 CALM      30.00R
GRANITE FALLS  MOSUNNY   77  71  80 N3        30.00R
CANBY          CLOUDY    73  70  90 CALM      30.01S
MARSHALL       PTSUNNY   75  70  83 N3        29.99R
REDWOOD FALLS  PTSUNNY   79  69  71 E6        29.98R
OLIVIA         CLOUDY    77  68  73 NW5       29.98R
PIPESTONE      PTSUNNY   75  70  83 NE6       30.01R
WINDOM         PTSUNNY   77  68  73 N5        30.00R
WORTHINGTON    MOSUNNY   79  19  11 NE9       30.01S
JACKSON        PTSUNNY   75  70  83 N6        30.01R
TRACY          PTSUNNY   78  70  76 CALM      30.00S
SLAYTON        CLOUDY    77  70  79 CALM      30.01S
$$
MNZ065>067-074>077-082>085-091>093-221800-
   South Central Minnesota

CITY           SKY/WX    TMP DP  RH WIND       PRES   REMARKS
MANKATO        CLOUDY    77  66  69 NE5       29.97R
NEW ULM        SUNNY     79  72  78 N5        29.98R
ST JAMES       PTSUNNY   81  68  65 N7        29.99R
FAIRMONT       CLOUDY    79  70  73 MISG      29.99R
GLENCOE        CLOUDY    76  67  72 CALM      29.97S
FARIBAULT      PTSUNNY   81  66  61 CALM      29.97S
OWATONNA       PTSUNNY   75  68  78 NE3       29.98S
WASECA         CLOUDY    77  64  65 NE3       29.99S
ALBERT LEA     MOSUNNY   79  72  78 N7        29.98R
$$
MNZ078>079-086>088-094>096-221800-
   Southeast Minnesota

CITY           SKY/WX    TMP DP  RH WIND       PRES   REMARKS
ROCHESTER      PTSUNNY   80  69  69 CALM      29.99R
RED WING       PTSUNNY   81  70  69 SW5       29.94S
STANTON        PTSUNNY   78  68  72 CALM      29.95S
DODGE CENTER   CLOUDY    75  70  83 N5        29.99R
WINONA         SUNNY     81  70  69 CALM      29.94S
AUSTIN         MOSUNNY   81  72  74 NE5       29.98R
PRESTON        PTSUNNY   78  74  87 CALM      29.98S
$$
ABBREVIATIONS USED IN REMARKS
   TC - TEMPERATURES IN CELSIUS
  WCI - WIND CHILL INDEX
   HX - HEAT INDEX
  VSB - VISIBILITY
$$



USA.gov is the U.S. government's official web portal to all federal, state and local government web resources and services.